Location: Lhota
(50.0887°N, 14.0116°E)
Time: 21:15:58
(UTC+00:00)

Cosmos 1766 Rocket - Pass Details

Date: 19 May 2025
Orbit: 598 x 627 km, 82.5° (Epoch: 15 June)

Event Time Altitude Azimuth Distance (km) Brightness Sun altitude
Rises 21:54:00 0° 344° (NNW) 2,908 8.7 -18.4°
Reaches altitude 10° 21:56:19 10° 338° (NNW) 1,992 7.4 -18.5°
Maximum altitude 22:00:29 43° 267° (W) 871 4.4 -18.7°
Enters shadow 22:02:14 28° 216° (SW) 1,150 4.6 -18.8°
